Year,Month,Day,Hour,Minute,Value (Times are PST for temperature in C)
2018,08,16,00,00,16.70
2018,08,16,00,01,16.70
2018,08,16,00,02,16.70
2018,08,16,00,03,16.80
2018,08,16,00,04,16.80
2018,08,16,00,05,16.80
2018,08,16,00,06,16.80
2018,08,16,00,07,16.90
2018,08,16,00,08,17.00
2018,08,16,00,09,17.00
2018,08,16,00,10,17.10
2018,08,16,00,11,17.10
2018,08,16,00,12,17.20
2018,08,16,00,13,17.20
2018,08,16,00,14,17.20
2018,08,16,00,15,17.20
2018,08,16,00,16,17.20
2018,08,16,00,17,17.10
2018,08,16,00,18,17.10
2018,08,16,00,19,17.10
2018,08,16,00,20,17.10
2018,08,16,00,21,17.20
2018,08,16,00,22,17.20
2018,08,16,00,23,17.20
2018,08,16,00,24,17.20
2018,08,16,00,25,17.10
2018,08,16,00,26,17.20
2018,08,16,00,27,17.20
2018,08,16,00,28,17.20
2018,08,16,00,29,17.20
2018,08,16,00,30,17.20
2018,08,16,00,31,17.20
2018,08,16,00,32,17.30
2018,08,16,00,33,17.30
2018,08,16,00,34,17.30
2018,08,16,00,35,17.20
2018,08,16,00,36,17.20
2018,08,16,00,37,17.20
2018,08,16,00,38,17.20
2018,08,16,00,39,17.20
2018,08,16,00,40,17.20
2018,08,16,00,41,17.20
2018,08,16,00,42,17.10
2018,08,16,00,43,17.10
2018,08,16,00,44,17.10
2018,08,16,00,45,17.10
2018,08,16,00,46,17.00
2018,08,16,00,47,17.00
2018,08,16,00,48,16.90
2018,08,16,00,49,16.90
2018,08,16,00,50,16.90
2018,08,16,00,51,16.90
2018,08,16,00,52,16.90
2018,08,16,00,53,16.90
2018,08,16,00,54,16.90
2018,08,16,00,55,16.80
2018,08,16,00,56,16.80
2018,08,16,00,57,16.80
2018,08,16,00,58,16.80
2018,08,16,00,59,16.70
2018,08,16,01,00,16.70
2018,08,16,01,01,16.60
2018,08,16,01,02,16.60
2018,08,16,01,03,16.50
2018,08,16,01,04,16.30
2018,08,16,01,05,16.20
2018,08,16,01,06,16.20
2018,08,16,01,07,16.10
2018,08,16,01,08,16.00
2018,08,16,01,09,16.00
2018,08,16,01,10,16.00
2018,08,16,01,11,16.00
2018,08,16,01,12,16.00
2018,08,16,01,13,16.10
2018,08,16,01,14,16.10
2018,08,16,01,15,16.10
2018,08,16,01,16,16.10
2018,08,16,01,17,16.10
2018,08,16,01,18,16.20
2018,08,16,01,19,16.20
2018,08,16,01,20,16.10
2018,08,16,01,21,16.20
2018,08,16,01,22,16.20
2018,08,16,01,23,16.20
2018,08,16,01,24,16.30
2018,08,16,01,25,16.30
2018,08,16,01,26,16.30
2018,08,16,01,27,16.40
2018,08,16,01,28,16.40
2018,08,16,01,29,16.50
2018,08,16,01,30,16.50
2018,08,16,01,31,16.50
2018,08,16,01,32,16.60
2018,08,16,01,33,16.60
2018,08,16,01,34,16.60
2018,08,16,01,35,16.60
2018,08,16,01,36,16.60
2018,08,16,01,37,16.50
2018,08,16,01,38,16.50
2018,08,16,01,39,16.50
2018,08,16,01,40,16.50
2018,08,16,01,41,16.50
2018,08,16,01,42,16.40
2018,08,16,01,43,16.40
2018,08,16,01,44,16.40
2018,08,16,01,45,16.40
2018,08,16,01,46,16.30
2018,08,16,01,47,16.30
2018,08,16,01,48,16.30
2018,08,16,01,49,16.30
2018,08,16,01,50,16.30
2018,08,16,01,51,16.30
2018,08,16,01,52,16.40
2018,08,16,01,53,16.40
2018,08,16,01,54,16.30
2018,08,16,01,55,16.30
2018,08,16,01,56,16.30
2018,08,16,01,57,16.20
2018,08,16,01,58,16.20
2018,08,16,01,59,16.20
2018,08,16,02,00,16.20
2018,08,16,02,01,16.20
2018,08,16,02,02,16.20
2018,08,16,02,03,16.10
2018,08,16,02,04,16.10
2018,08,16,02,05,16.10
2018,08,16,02,06,16.10
2018,08,16,02,07,16.10
2018,08,16,02,08,16.10
2018,08,16,02,09,16.10
2018,08,16,02,10,16.10
2018,08,16,02,11,16.10
2018,08,16,02,12,16.10
2018,08,16,02,13,16.10
2018,08,16,02,14,16.10
2018,08,16,02,15,16.10
2018,08,16,02,16,16.10
2018,08,16,02,17,16.10
2018,08,16,02,18,16.10
2018,08,16,02,19,16.10
2018,08,16,02,20,16.10
2018,08,16,02,21,16.10
2018,08,16,02,22,16.10
2018,08,16,02,23,16.10
2018,08,16,02,24,16.10
2018,08,16,02,25,16.10
2018,08,16,02,26,16.10
2018,08,16,02,27,16.10
2018,08,16,02,28,16.00
2018,08,16,02,29,16.00
2018,08,16,02,30,16.00
2018,08,16,02,31,16.00
2018,08,16,02,32,16.00
2018,08,16,02,33,16.10
2018,08,16,02,34,16.10
2018,08,16,02,35,16.10
2018,08,16,02,36,16.00
2018,08,16,02,37,16.00
2018,08,16,02,38,15.80
2018,08,16,02,39,15.70
2018,08,16,02,40,15.60
2018,08,16,02,41,15.50
2018,08,16,02,42,15.40
2018,08,16,02,43,15.30
2018,08,16,02,44,15.10
2018,08,16,02,45,15.00
2018,08,16,02,46,15.00
2018,08,16,02,47,15.00
2018,08,16,02,48,15.00
2018,08,16,02,49,15.00
2018,08,16,02,50,15.00
2018,08,16,02,51,14.90
2018,08,16,02,52,14.80
2018,08,16,02,53,14.80
2018,08,16,02,54,14.70
2018,08,16,02,55,14.60
2018,08,16,02,56,14.60
2018,08,16,02,57,14.50
2018,08,16,02,58,14.40
2018,08,16,02,59,14.40
2018,08,16,03,00,14.40
2018,08,16,03,01,14.40
2018,08,16,03,02,14.40
2018,08,16,03,03,14.40
2018,08,16,03,04,14.40
2018,08,16,03,05,14.30
2018,08,16,03,06,14.30
2018,08,16,03,07,14.30
2018,08,16,03,08,14.20
2018,08,16,03,09,14.20
2018,08,16,03,10,14.20
2018,08,16,03,11,14.10
2018,08,16,03,12,14.10
2018,08,16,03,13,14.10
2018,08,16,03,14,14.00
2018,08,16,03,15,14.00
2018,08,16,03,16,14.00
2018,08,16,03,17,13.90
2018,08,16,03,18,13.90
2018,08,16,03,19,13.90
2018,08,16,03,20,13.90
2018,08,16,03,21,13.90
2018,08,16,03,22,13.90
2018,08,16,03,23,13.90
2018,08,16,03,24,13.80
2018,08,16,03,25,13.80
2018,08,16,03,26,13.80
2018,08,16,03,27,13.90
2018,08,16,03,28,13.90
2018,08,16,03,29,13.90
2018,08,16,03,30,13.80
2018,08,16,03,31,13.80
2018,08,16,03,32,13.80
2018,08,16,03,33,13.70
2018,08,16,03,34,13.60
2018,08,16,03,35,13.60
2018,08,16,03,36,13.60
2018,08,16,03,37,13.50
2018,08,16,03,38,13.50
2018,08,16,03,39,13.50
2018,08,16,03,40,13.50
2018,08,16,03,41,13.50
2018,08,16,03,42,13.50
2018,08,16,03,43,13.60
2018,08,16,03,44,13.60
2018,08,16,03,45,13.60
2018,08,16,03,46,13.60
2018,08,16,03,47,13.60
2018,08,16,03,48,13.60
2018,08,16,03,49,13.60
2018,08,16,03,50,13.60
2018,08,16,03,51,13.50
2018,08,16,03,52,13.50
2018,08,16,03,53,13.50
2018,08,16,03,54,13.40
2018,08,16,03,55,13.40
2018,08,16,03,56,13.40
2018,08,16,03,57,13.30
2018,08,16,03,58,13.30
2018,08,16,03,59,13.30
2018,08,16,04,00,13.30
2018,08,16,04,01,13.20
2018,08,16,04,02,13.20
2018,08,16,04,03,13.20
2018,08,16,04,04,13.10
2018,08,16,04,05,13.10
2018,08,16,04,06,13.10
2018,08,16,04,07,13.10
2018,08,16,04,08,13.10
2018,08,16,04,09,13.10
2018,08,16,04,10,13.10
2018,08,16,04,11,13.10
2018,08,16,04,12,13.10
2018,08,16,04,13,13.10
2018,08,16,04,14,13.10
2018,08,16,04,15,13.10
2018,08,16,04,16,13.10
2018,08,16,04,17,13.10
2018,08,16,04,18,13.10
2018,08,16,04,19,13.10
2018,08,16,04,20,13.10
2018,08,16,04,21,13.10
2018,08,16,04,22,13.10
2018,08,16,04,23,13.10
2018,08,16,04,24,13.00
2018,08,16,04,25,13.00
2018,08,16,04,26,12.90
2018,08,16,04,27,12.90
2018,08,16,04,28,12.90
2018,08,16,04,29,13.00
2018,08,16,04,30,13.00
2018,08,16,04,31,12.90
2018,08,16,04,32,12.90
2018,08,16,04,33,12.90
2018,08,16,04,34,12.90
2018,08,16,04,35,12.90
2018,08,16,04,36,13.00
2018,08,16,04,37,13.00
2018,08,16,04,38,13.10
2018,08,16,04,39,13.20
2018,08,16,04,40,13.30
2018,08,16,04,41,13.30
2018,08,16,04,42,13.40
2018,08,16,04,43,13.40
2018,08,16,04,44,13.40
2018,08,16,04,45,13.40
2018,08,16,04,46,13.30
2018,08,16,04,47,13.20
2018,08,16,04,48,13.10
2018,08,16,04,49,13.00
2018,08,16,04,50,12.90
2018,08,16,04,51,12.80
2018,08,16,04,52,12.70
2018,08,16,04,53,12.60
2018,08,16,04,54,12.50
2018,08,16,04,55,12.50
2018,08,16,04,56,12.40
2018,08,16,04,57,12.40
2018,08,16,04,58,12.50
2018,08,16,04,59,12.60
2018,08,16,05,00,12.60
2018,08,16,05,01,12.70
2018,08,16,05,02,12.70
2018,08,16,05,03,12.80
2018,08,16,05,04,12.80
2018,08,16,05,05,12.80
2018,08,16,05,06,12.90
2018,08,16,05,07,12.90
2018,08,16,05,08,13.00
2018,08,16,05,09,13.00
2018,08,16,05,10,13.00
2018,08,16,05,11,12.90
2018,08,16,05,12,12.90
2018,08,16,05,13,12.90
2018,08,16,05,14,12.90
2018,08,16,05,15,12.90
2018,08,16,05,16,12.90
2018,08,16,05,17,12.80
2018,08,16,05,18,12.80
2018,08,16,05,19,12.80
2018,08,16,05,20,12.80
2018,08,16,05,21,12.80
2018,08,16,05,22,12.80
2018,08,16,05,23,12.80
2018,08,16,05,24,12.80
2018,08,16,05,25,12.80
2018,08,16,05,26,12.80
2018,08,16,05,27,12.80
2018,08,16,05,28,12.80
2018,08,16,05,29,12.80
2018,08,16,05,30,12.70
2018,08,16,05,31,12.70
2018,08,16,05,32,12.70
2018,08,16,05,33,12.70
2018,08,16,05,34,12.70
2018,08,16,05,35,12.70
2018,08,16,05,36,12.60
2018,08,16,05,37,12.60
2018,08,16,05,38,12.60
2018,08,16,05,39,12.60
2018,08,16,05,40,12.60
2018,08,16,05,41,12.60
2018,08,16,05,42,12.60
2018,08,16,05,43,12.60
2018,08,16,05,44,12.60
2018,08,16,05,45,12.50
2018,08,16,05,46,12.50
2018,08,16,05,47,12.50
2018,08,16,05,48,12.50
2018,08,16,05,49,12.50
2018,08,16,05,50,12.40
2018,08,16,05,51,12.40
2018,08,16,05,52,12.30
2018,08,16,05,53,12.30
2018,08,16,05,54,12.30
2018,08,16,05,55,12.30
2018,08,16,05,56,12.30
2018,08,16,05,57,12.30
2018,08,16,05,58,12.30
2018,08,16,05,59,12.30
2018,08,16,06,00,12.30
2018,08,16,06,01,12.30
2018,08,16,06,02,12.30
2018,08,16,06,03,12.30
2018,08,16,06,04,12.30
2018,08,16,06,05,12.30
2018,08,16,06,06,12.30
2018,08,16,06,07,12.30
2018,08,16,06,08,12.30
2018,08,16,06,09,12.30
2018,08,16,06,10,12.40
2018,08,16,06,11,12.40
2018,08,16,06,12,12.40
2018,08,16,06,13,12.40
2018,08,16,06,14,12.40
2018,08,16,06,15,12.40
2018,08,16,06,16,12.40
2018,08,16,06,17,12.40
2018,08,16,06,18,12.50
2018,08,16,06,19,12.60
2018,08,16,06,20,12.60
2018,08,16,06,21,12.60
2018,08,16,06,22,12.60
2018,08,16,06,23,12.70
2018,08,16,06,24,12.70
2018,08,16,06,25,12.70
2018,08,16,06,26,12.70
2018,08,16,06,27,12.80
2018,08,16,06,28,12.80
2018,08,16,06,29,12.80
2018,08,16,06,30,12.80
2018,08,16,06,31,12.70
2018,08,16,06,32,12.70
2018,08,16,06,33,12.70
2018,08,16,06,34,12.70
2018,08,16,06,35,12.70
2018,08,16,06,36,12.70
2018,08,16,06,37,12.70
2018,08,16,06,38,12.70
2018,08,16,06,39,12.70
2018,08,16,06,40,12.80
2018,08,16,06,41,12.80
2018,08,16,06,42,12.80
2018,08,16,06,43,12.80
2018,08,16,06,44,12.80
2018,08,16,06,45,12.80
2018,08,16,06,46,12.80
2018,08,16,06,47,12.70
2018,08,16,06,48,12.70
2018,08,16,06,49,12.70
2018,08,16,06,50,12.70
2018,08,16,06,51,12.80
2018,08,16,06,52,12.80
2018,08,16,06,53,12.80
2018,08,16,06,54,12.80
2018,08,16,06,55,12.80
2018,08,16,06,56,12.90
2018,08,16,06,57,12.90
2018,08,16,06,58,12.90
2018,08,16,06,59,13.00
2018,08,16,07,00,13.00
2018,08,16,07,01,13.00
2018,08,16,07,02,13.10
2018,08,16,07,03,13.20
2018,08,16,07,04,13.20
2018,08,16,07,05,13.20
2018,08,16,07,06,13.20
2018,08,16,07,07,13.30
2018,08,16,07,08,13.40
2018,08,16,07,09,13.40
2018,08,16,07,10,13.40
2018,08,16,07,11,13.50
2018,08,16,07,12,13.60
2018,08,16,07,13,13.70
2018,08,16,07,14,13.70
2018,08,16,07,15,13.70
2018,08,16,07,16,13.70
2018,08,16,07,17,13.80
2018,08,16,07,18,13.80
2018,08,16,07,19,13.80
2018,08,16,07,20,13.80
2018,08,16,07,21,13.80
2018,08,16,07,22,13.90
2018,08,16,07,23,13.90
2018,08,16,07,24,13.90
2018,08,16,07,25,14.10
2018,08,16,07,26,14.10
2018,08,16,07,27,14.20
2018,08,16,07,28,14.20
2018,08,16,07,29,14.30
2018,08,16,07,30,14.40
2018,08,16,07,31,14.50
2018,08,16,07,32,14.50
2018,08,16,07,33,14.50
2018,08,16,07,34,14.50
2018,08,16,07,35,14.60
2018,08,16,07,36,14.80
2018,08,16,07,37,14.90
2018,08,16,07,38,14.90
2018,08,16,07,39,15.00
2018,08,16,07,40,15.00
2018,08,16,07,41,15.00
2018,08,16,07,42,15.00
2018,08,16,07,43,15.10
2018,08,16,07,44,15.30
2018,08,16,07,45,15.30
2018,08,16,07,46,15.50
2018,08,16,07,47,15.60
2018,08,16,07,48,15.70
2018,08,16,07,49,15.80
2018,08,16,07,50,15.80
2018,08,16,07,51,15.90
2018,08,16,07,52,16.00
2018,08,16,07,53,16.10
2018,08,16,07,54,16.20
2018,08,16,07,55,16.30
2018,08,16,07,56,16.30
2018,08,16,07,57,16.40
2018,08,16,07,58,16.50
2018,08,16,07,59,16.60
2018,08,16,08,00,16.60
2018,08,16,08,01,16.70
2018,08,16,08,02,16.70
2018,08,16,08,03,16.80
2018,08,16,08,04,16.80
2018,08,16,08,05,16.90
2018,08,16,08,06,17.00
2018,08,16,08,07,17.10
2018,08,16,08,08,17.10
2018,08,16,08,09,17.10
2018,08,16,08,10,17.20
2018,08,16,08,11,17.20
2018,08,16,08,12,17.30
2018,08,16,08,13,17.30
2018,08,16,08,14,17.30
2018,08,16,08,15,17.40
2018,08,16,08,16,17.40
2018,08,16,08,17,17.40
2018,08,16,08,18,17.40
2018,08,16,08,19,17.50
2018,08,16,08,20,17.50
2018,08,16,08,21,17.60
2018,08,16,08,22,17.60
2018,08,16,08,23,17.60
2018,08,16,08,24,17.60
2018,08,16,08,25,17.70
2018,08,16,08,26,17.70
2018,08,16,08,27,17.70
2018,08,16,08,28,17.70
2018,08,16,08,29,17.80
2018,08,16,08,30,17.80
2018,08,16,08,31,17.80
2018,08,16,08,32,17.80
2018,08,16,08,33,17.80
2018,08,16,08,34,17.90
2018,08,16,08,35,17.90
2018,08,16,08,36,17.90
2018,08,16,08,37,17.90
2018,08,16,08,38,17.90
2018,08,16,08,39,17.90
2018,08,16,08,40,17.90
2018,08,16,08,41,18.00
2018,08,16,08,42,18.00
2018,08,16,08,43,18.10
2018,08,16,08,44,18.20
2018,08,16,08,45,18.20
2018,08,16,08,46,18.20
2018,08,16,08,47,18.30
2018,08,16,08,48,18.30
2018,08,16,08,49,18.30
2018,08,16,08,50,18.40
2018,08,16,08,51,18.40
2018,08,16,08,52,18.40
2018,08,16,08,53,18.40
2018,08,16,08,54,18.50
2018,08,16,08,55,18.50
2018,08,16,08,56,18.60
2018,08,16,08,57,18.60
2018,08,16,08,58,18.70
2018,08,16,08,59,18.70
2018,08,16,09,00,18.80
2018,08,16,09,01,18.80
2018,08,16,09,02,18.80
2018,08,16,09,03,18.90
2018,08,16,09,04,18.90
2018,08,16,09,05,18.90
2018,08,16,09,06,18.90
2018,08,16,09,07,18.90
2018,08,16,09,08,19.10
2018,08,16,09,09,19.20
2018,08,16,09,10,19.20
2018,08,16,09,11,19.20
2018,08,16,09,12,19.20
2018,08,16,09,13,19.20
2018,08,16,09,14,19.20
2018,08,16,09,15,19.30
2018,08,16,09,16,19.30
2018,08,16,09,17,19.40
2018,08,16,09,18,19.30
2018,08,16,09,19,19.30
2018,08,16,09,20,19.10
2018,08,16,09,21,19.10
2018,08,16,09,22,19.00
2018,08,16,09,23,18.90
2018,08,16,09,24,19.00
2018,08,16,09,25,19.10
2018,08,16,09,26,19.10
2018,08,16,09,27,19.10
2018,08,16,09,28,19.10
2018,08,16,09,29,19.10
2018,08,16,09,30,19.10
2018,08,16,09,31,19.10
2018,08,16,09,32,19.10
2018,08,16,09,33,19.00
2018,08,16,09,34,19.00
2018,08,16,09,35,19.00
2018,08,16,09,36,18.90
2018,08,16,09,37,18.90
2018,08,16,09,38,18.90
2018,08,16,09,39,18.80
2018,08,16,09,40,18.80
2018,08,16,09,41,18.80
2018,08,16,09,42,18.80
2018,08,16,09,43,18.80
2018,08,16,09,44,18.80
2018,08,16,09,45,18.80
2018,08,16,09,46,18.90
2018,08,16,09,47,18.90
2018,08,16,09,48,18.80
2018,08,16,09,49,18.80
2018,08,16,09,50,18.70
2018,08,16,09,51,18.70
2018,08,16,09,52,18.70
2018,08,16,09,53,18.70
2018,08,16,09,54,18.70
2018,08,16,09,55,18.70
2018,08,16,09,56,18.70
2018,08,16,09,57,18.70
2018,08,16,09,58,18.70
2018,08,16,09,59,18.80
2018,08,16,10,00,18.70
2018,08,16,10,01,18.80
2018,08,16,10,02,18.80
2018,08,16,10,03,18.80
2018,08,16,10,04,18.80
2018,08,16,10,05,18.90
2018,08,16,10,06,18.90
2018,08,16,10,07,18.90
2018,08,16,10,08,18.80
2018,08,16,10,09,18.80
2018,08,16,10,10,18.80
2018,08,16,10,11,18.80
2018,08,16,10,12,18.80
2018,08,16,10,13,18.90
2018,08,16,10,14,18.90
2018,08,16,10,15,18.90
2018,08,16,10,16,19.00
2018,08,16,10,17,19.00
2018,08,16,10,18,19.00
2018,08,16,10,19,19.00
2018,08,16,10,20,19.00
2018,08,16,10,21,19.10
2018,08,16,10,22,19.20
2018,08,16,10,23,19.20
2018,08,16,10,24,19.20
2018,08,16,10,25,19.30
2018,08,16,10,26,19.40
2018,08,16,10,27,19.60
2018,08,16,10,28,19.60
2018,08,16,10,29,19.60
2018,08,16,10,30,19.60
2018,08,16,10,31,19.50
2018,08,16,10,32,19.50
2018,08,16,10,33,19.50
2018,08,16,10,34,19.60
2018,08,16,10,35,19.60
2018,08,16,10,36,19.70
2018,08,16,10,37,19.70
2018,08,16,10,38,19.70
2018,08,16,10,39,19.80
2018,08,16,10,40,19.80
2018,08,16,10,41,19.90
2018,08,16,10,42,19.90
2018,08,16,10,43,19.90
2018,08,16,10,44,19.80
2018,08,16,10,45,19.80
2018,08,16,10,46,19.80
2018,08,16,10,47,19.70
2018,08,16,10,48,19.70
2018,08,16,10,49,19.70
2018,08,16,10,50,19.70
2018,08,16,10,51,19.70
2018,08,16,10,52,19.70
2018,08,16,10,53,19.70
2018,08,16,10,54,19.70
2018,08,16,10,55,19.60
2018,08,16,10,56,19.60
2018,08,16,10,57,19.60
2018,08,16,10,58,19.50
2018,08,16,10,59,19.50
2018,08,16,11,00,19.50
2018,08,16,11,01,19.50
2018,08,16,11,02,19.40
2018,08,16,11,03,19.40
2018,08,16,11,04,19.40
2018,08,16,11,05,19.30
2018,08,16,11,06,19.40
2018,08,16,11,07,19.50
2018,08,16,11,08,19.50
2018,08,16,11,09,19.60
2018,08,16,11,10,19.70
2018,08,16,11,11,19.80
2018,08,16,11,12,19.90
2018,08,16,11,13,19.90
2018,08,16,11,14,19.90
2018,08,16,11,15,19.90
2018,08,16,11,16,19.90
2018,08,16,11,17,20.00
2018,08,16,11,18,20.00
2018,08,16,11,19,20.00
2018,08,16,11,20,20.00
2018,08,16,11,21,20.00
2018,08,16,11,22,20.00
2018,08,16,11,23,20.10
2018,08,16,11,24,20.10
2018,08,16,11,25,20.20
2018,08,16,11,26,20.20
2018,08,16,11,27,20.20
2018,08,16,11,28,20.30
2018,08,16,11,29,20.40
2018,08,16,11,30,20.50
2018,08,16,11,31,20.40
2018,08,16,11,32,20.30
2018,08,16,11,33,20.20
2018,08,16,11,34,20.00
2018,08,16,11,35,20.00
2018,08,16,11,36,20.00
2018,08,16,11,37,20.10
2018,08,16,11,38,20.10
2018,08,16,11,39,20.20
2018,08,16,11,40,20.20
2018,08,16,11,41,20.20
2018,08,16,11,42,20.20
2018,08,16,11,43,20.10
2018,08,16,11,44,20.10
2018,08,16,11,45,20.20
2018,08,16,11,46,20.20
2018,08,16,11,47,20.20
2018,08,16,11,48,20.30
2018,08,16,11,49,20.40
2018,08,16,11,50,20.40
2018,08,16,11,51,20.30
2018,08,16,11,52,20.20
2018,08,16,11,53,20.20
2018,08,16,11,54,20.00
2018,08,16,11,55,20.00
2018,08,16,11,56,20.10
2018,08,16,11,57,20.10
2018,08,16,11,58,20.10
2018,08,16,11,59,20.10
2018,08,16,12,00,20.10
2018,08,16,12,01,20.20
2018,08,16,12,02,20.20
2018,08,16,12,03,20.20
2018,08,16,12,04,20.20
2018,08,16,12,05,20.20
2018,08,16,12,06,20.30
2018,08,16,12,07,20.20
2018,08,16,12,08,20.20
2018,08,16,12,09,20.20
2018,08,16,12,10,20.20
2018,08,16,12,11,20.20
2018,08,16,12,12,20.20
2018,08,16,12,13,20.00
2018,08,16,12,14,20.00
2018,08,16,12,15,19.90
2018,08,16,12,16,20.00
2018,08,16,12,17,20.00
2018,08,16,12,18,20.00
2018,08,16,12,19,20.10
2018,08,16,12,20,20.00
2018,08,16,12,21,20.00
2018,08,16,12,22,20.00
2018,08,16,12,23,20.10
2018,08,16,12,24,20.20
2018,08,16,12,25,20.30
2018,08,16,12,26,20.40
2018,08,16,12,27,20.30
2018,08,16,12,28,20.20
2018,08,16,12,29,20.20
2018,08,16,12,30,20.20
2018,08,16,12,31,20.00
2018,08,16,12,32,20.00
2018,08,16,12,33,20.00
2018,08,16,12,34,19.90
2018,08,16,12,35,20.00
2018,08,16,12,36,20.10
2018,08,16,12,37,20.10
2018,08,16,12,38,20.10
2018,08,16,12,39,20.10
2018,08,16,12,40,20.10
2018,08,16,12,41,20.10
2018,08,16,12,42,20.10
2018,08,16,12,43,20.10
2018,08,16,12,44,20.20
2018,08,16,12,45,20.20
2018,08,16,12,46,20.20
2018,08,16,12,47,20.10
2018,08,16,12,48,20.10
2018,08,16,12,49,20.10
2018,08,16,12,50,20.10
2018,08,16,12,51,20.20
2018,08,16,12,52,20.10
2018,08,16,12,53,20.10
2018,08,16,12,54,20.20
2018,08,16,12,55,20.40
2018,08,16,12,56,20.60
2018,08,16,12,57,20.60
2018,08,16,12,58,20.50
2018,08,16,12,59,20.40
2018,08,16,13,00,20.40
2018,08,16,13,01,20.30
2018,08,16,13,02,20.30
2018,08,16,13,03,20.40
2018,08,16,13,04,20.50
2018,08,16,13,05,20.60
2018,08,16,13,06,20.70
2018,08,16,13,07,20.50
2018,08,16,13,08,20.50
2018,08,16,13,09,20.50
2018,08,16,13,10,20.50
2018,08,16,13,11,20.50
2018,08,16,13,12,20.60
2018,08,16,13,13,20.70
2018,08,16,13,14,20.80
2018,08,16,13,15,21.00
2018,08,16,13,16,21.10
2018,08,16,13,17,21.20
2018,08,16,13,18,21.30
2018,08,16,13,19,21.30
2018,08,16,13,20,21.20
2018,08,16,13,21,21.30
2018,08,16,13,22,21.30
2018,08,16,13,23,21.30
2018,08,16,13,24,21.30
2018,08,16,13,25,21.40
2018,08,16,13,26,21.60
2018,08,16,13,27,21.60
2018,08,16,13,28,21.60
2018,08,16,13,29,21.50
2018,08,16,13,30,21.30
2018,08,16,13,31,21.40
2018,08,16,13,32,21.40
2018,08,16,13,33,21.50
2018,08,16,13,34,21.50
2018,08,16,13,35,21.50
2018,08,16,13,36,21.40
2018,08,16,13,37,21.50
2018,08,16,13,38,21.60
2018,08,16,13,39,21.80
2018,08,16,13,40,21.80
2018,08,16,13,41,21.80
2018,08,16,13,42,21.80
2018,08,16,13,43,21.60
2018,08,16,13,44,21.50
2018,08,16,13,45,21.40
2018,08,16,13,46,21.40
2018,08,16,13,47,21.40
2018,08,16,13,48,21.40
2018,08,16,13,49,21.40
2018,08,16,13,50,21.60
2018,08,16,13,51,21.70
2018,08,16,13,52,21.80
2018,08,16,13,53,21.90
2018,08,16,13,54,21.90
2018,08,16,13,55,21.90
2018,08,16,13,56,21.80
2018,08,16,13,57,21.80
2018,08,16,13,58,21.80
2018,08,16,13,59,21.70
2018,08,16,14,00,21.60
2018,08,16,14,01,21.60
2018,08,16,14,02,21.70
2018,08,16,14,03,21.80
2018,08,16,14,04,21.80
2018,08,16,14,05,21.80
2018,08,16,14,06,21.90
2018,08,16,14,07,22.00
2018,08,16,14,08,22.10
2018,08,16,14,09,22.20
2018,08,16,14,10,22.20
2018,08,16,14,11,22.20
2018,08,16,14,12,22.20
2018,08,16,14,13,22.10
2018,08,16,14,14,22.20
2018,08,16,14,15,22.20
2018,08,16,14,16,22.20
2018,08,16,14,17,22.20
2018,08,16,14,18,22.30
2018,08,16,14,19,22.40
2018,08,16,14,20,22.40
2018,08,16,14,21,22.50
2018,08,16,14,22,22.60
2018,08,16,14,23,22.60
2018,08,16,14,24,22.60
2018,08,16,14,25,22.60
2018,08,16,14,26,22.70
2018,08,16,14,27,22.70
2018,08,16,14,28,22.60
2018,08,16,14,29,22.60
2018,08,16,14,30,22.60
2018,08,16,14,31,22.50
2018,08,16,14,32,22.50
2018,08,16,14,33,22.60
2018,08,16,14,34,22.60
2018,08,16,14,35,22.60
2018,08,16,14,36,22.70
2018,08,16,14,37,22.80
2018,08,16,14,38,22.90
2018,08,16,14,39,22.90
2018,08,16,14,40,22.90
2018,08,16,14,41,22.90
2018,08,16,14,42,22.90
2018,08,16,14,43,22.90
2018,08,16,14,44,23.00
2018,08,16,14,45,23.00
2018,08,16,14,46,22.90
2018,08,16,14,47,22.80
2018,08,16,14,48,22.70
2018,08,16,14,49,22.70
2018,08,16,14,50,22.60
2018,08,16,14,51,22.70
2018,08,16,14,52,22.70
2018,08,16,14,53,22.80
2018,08,16,14,54,22.80
2018,08,16,14,55,22.90
2018,08,16,14,56,23.00
2018,08,16,14,57,23.10
2018,08,16,14,58,23.10
2018,08,16,14,59,23.10
2018,08,16,15,00,23.20
2018,08,16,15,01,23.20
2018,08,16,15,02,23.20
2018,08,16,15,03,23.30
2018,08,16,15,04,23.40
2018,08,16,15,05,23.60
2018,08,16,15,06,23.60
2018,08,16,15,07,23.70
2018,08,16,15,08,23.80
2018,08,16,15,09,23.90
2018,08,16,15,10,23.90
2018,08,16,15,11,23.80
2018,08,16,15,12,23.80
2018,08,16,15,13,23.70
2018,08,16,15,14,23.70
2018,08,16,15,15,23.70
2018,08,16,15,16,23.80
2018,08,16,15,17,23.70
2018,08,16,15,18,23.70
2018,08,16,15,19,23.70
2018,08,16,15,20,23.70
2018,08,16,15,21,23.70
2018,08,16,15,22,23.70
2018,08,16,15,23,23.70
2018,08,16,15,24,23.70
2018,08,16,15,25,23.80
2018,08,16,15,26,23.80
2018,08,16,15,27,23.80
2018,08,16,15,28,23.60
2018,08,16,15,29,23.50
2018,08,16,15,30,23.50
2018,08,16,15,31,23.40
2018,08,16,15,32,23.40
2018,08,16,15,33,23.50
2018,08,16,15,34,23.70
2018,08,16,15,35,23.80
2018,08,16,15,36,23.80
2018,08,16,15,37,23.80
2018,08,16,15,38,23.80
2018,08,16,15,39,23.80
2018,08,16,15,40,23.80
2018,08,16,15,41,23.80
2018,08,16,15,42,23.80
2018,08,16,15,43,23.80
2018,08,16,15,44,23.80
2018,08,16,15,45,23.90
2018,08,16,15,46,23.90
2018,08,16,15,47,23.90
2018,08,16,15,48,23.90
2018,08,16,15,49,23.90
2018,08,16,15,50,23.90
2018,08,16,15,51,23.90
2018,08,16,15,52,23.80
2018,08,16,15,53,23.90
2018,08,16,15,54,24.00
2018,08,16,15,55,24.00
2018,08,16,15,56,23.90
2018,08,16,15,57,23.80
2018,08,16,15,58,23.90
2018,08,16,15,59,23.90
2018,08,16,16,00,23.90
2018,08,16,16,01,23.90
2018,08,16,16,02,23.90
2018,08,16,16,03,23.90
2018,08,16,16,04,23.80
2018,08,16,16,05,23.70
2018,08,16,16,06,23.80
2018,08,16,16,07,23.80
2018,08,16,16,08,23.80
2018,08,16,16,09,23.80
2018,08,16,16,10,23.80
2018,08,16,16,11,23.80
2018,08,16,16,12,23.90
2018,08,16,16,13,23.90
2018,08,16,16,14,23.90
2018,08,16,16,15,23.90
2018,08,16,16,16,23.90
2018,08,16,16,17,23.90
2018,08,16,16,18,23.90
2018,08,16,16,19,23.80
2018,08,16,16,20,23.70
2018,08,16,16,21,23.70
2018,08,16,16,22,23.70
2018,08,16,16,23,23.70
2018,08,16,16,24,23.70
2018,08,16,16,25,23.70
2018,08,16,16,26,23.70
2018,08,16,16,27,23.80
2018,08,16,16,28,23.80
2018,08,16,16,29,23.80
2018,08,16,16,30,23.80
2018,08,16,16,31,23.80
2018,08,16,16,32,23.80
2018,08,16,16,33,23.70
2018,08,16,16,34,23.70
2018,08,16,16,35,23.80
2018,08,16,16,36,23.90
2018,08,16,16,37,23.90
2018,08,16,16,38,24.00
2018,08,16,16,39,24.00
2018,08,16,16,40,23.80
2018,08,16,16,41,23.80
2018,08,16,16,42,23.60
2018,08,16,16,43,23.60
2018,08,16,16,44,23.70
2018,08,16,16,45,23.70
2018,08,16,16,46,23.60
2018,08,16,16,47,23.60
2018,08,16,16,48,23.70
2018,08,16,16,49,23.70
2018,08,16,16,50,23.60
2018,08,16,16,51,23.60
2018,08,16,16,52,23.60
2018,08,16,16,53,23.60
2018,08,16,16,54,23.50
2018,08,16,16,55,23.50
2018,08,16,16,56,23.40
2018,08,16,16,57,23.40
2018,08,16,16,58,23.30
2018,08,16,16,59,23.30
2018,08,16,17,00,23.30
2018,08,16,17,01,23.40
2018,08,16,17,02,23.40
2018,08,16,17,03,23.40
2018,08,16,17,04,23.40
2018,08,16,17,05,23.30
2018,08,16,17,06,23.30
2018,08,16,17,07,23.30
2018,08,16,17,08,23.30
2018,08,16,17,09,23.40
2018,08,16,17,10,23.40
2018,08,16,17,11,23.30
2018,08,16,17,12,23.30
2018,08,16,17,13,23.30
2018,08,16,17,14,23.20
2018,08,16,17,15,23.20
2018,08,16,17,16,23.10
2018,08,16,17,17,23.10
2018,08,16,17,18,23.10
2018,08,16,17,19,23.10